SBW241 BGSF-CYDF

Flight info

Callsign SBW241
Flight time N/A
Altitude 28000
Route BAVKO1A BAVKO Y67 MA/M078F400 DCT 58N055W/N0441F400 54N056W DCT MELDI DCT VIDSI
Aircraft A343/H-SDE2E3FGHIJ4J5M1RWXY/LB1D1

Departure

Time 2026-04-19 11:50
Airport Kangerlussuaq International Airport (BGSF)

Arrival

Time N/A
Airport Deer Lake Airport (CYDF)
Time Latitude Longitude Altitude Speed Heading
2026-04-19 11:13 67.00688 -50.71671 161 ft 0 kts 152°
2026-04-19 11:33 67.00698 -50.71680 161 ft 4 kts 184°
2026-04-19 11:33 67.00719 -50.71685 161 ft 4 kts 189°
2026-04-19 11:34 67.00741 -50.71656 161 ft 4 kts 232°
2026-04-19 11:34 67.00750 -50.71621 161 ft 0 kts 242°
2026-04-19 11:43 67.00744 -50.71651 161 ft 4 kts 241°
2026-04-19 11:43 67.00726 -50.71745 161 ft 6 kts 255°
2026-04-19 11:43 67.00748 -50.71849 160 ft 8 kts 317°
2026-04-19 11:43 67.00806 -50.71941 159 ft 12 kts 330°
2026-04-19 11:44 67.00885 -50.72055 155 ft 7 kts 332°
2026-04-19 11:44 67.00895 -50.72068 155 ft 0 kts 333°
2026-04-19 11:45 67.00902 -50.72077 155 ft 3 kts 333°
2026-04-19 11:45 67.00946 -50.72136 156 ft 10 kts 332°
2026-04-19 11:45 67.00991 -50.72245 157 ft 10 kts 284°
2026-04-19 11:46 67.00957 -50.72454 153 ft 16 kts 240°
2026-04-19 11:46 67.00894 -50.72741 149 ft 21 kts 242°
2026-04-19 11:46 67.00813 -50.73122 137 ft 28 kts 241°
2026-04-19 11:46 67.00709 -50.73616 118 ft 35 kts 242°
2026-04-19 11:47 67.00611 -50.74084 111 ft 18 kts 241°
2026-04-19 11:47 67.00563 -50.74279 107 ft 4 kts 219°
2026-04-19 11:47 67.00541 -50.74305 106 ft 2 kts 205°
2026-04-19 11:47 67.00531 -50.74344 107 ft 2 kts 255°
2026-04-19 11:48 67.00538 -50.74371 107 ft 1 kts 311°
2026-04-19 11:48 67.00546 -50.74369 106 ft 2 kts 356°
2026-04-19 11:48 67.00556 -50.74336 107 ft 4 kts 57°
2026-04-19 11:48 67.00562 -50.74307 107 ft 0 kts 61°
2026-04-19 11:49 67.00592 -50.74167 110 ft 23 kts 60°
2026-04-19 11:49 67.00813 -50.73121 135 ft 111 kts 62°
2026-04-19 11:50 67.01294 -50.70847 259 ft 176 kts 62°
2026-04-19 11:50 67.01909 -50.67959 1055 ft 193 kts 60°
2026-04-19 11:50 67.02588 -50.64757 1871 ft 221 kts 66°
2026-04-19 11:50 67.02797 -50.60748 2890 ft 237 kts 97°
2026-04-19 11:51 67.02353 -50.56632 4026 ft 244 kts 115°
2026-04-19 11:51 67.01329 -50.53153 5247 ft 248 kts 141°
2026-04-19 11:51 66.99778 -50.51284 6450 ft 249 kts 172°
2026-04-19 11:51 66.98055 -50.51431 7659 ft 250 kts 192°
2026-04-19 11:52 66.96490 -50.53370 8832 ft 257 kts 218°
2026-04-19 11:52 66.95279 -50.56781 9957 ft 262 kts 226°
2026-04-19 11:52 66.94089 -50.60413 10752 ft 275 kts 225°
2026-04-19 11:52 66.92774 -50.64236 11223 ft 295 kts 225°
2026-04-19 11:53 66.92058 -50.66279 11589 ft 301 kts 225°
2026-04-19 11:54 66.90648 -50.70272 12415 ft 309 kts 225°
2026-04-19 11:54 66.89191 -50.74373 13324 ft 315 kts 225°
2026-04-19 11:54 66.87711 -50.78517 14177 ft 319 kts 225°
2026-04-19 11:54 66.86200 -50.82730 14973 ft 325 kts 225°
2026-04-19 11:55 66.84682 -50.86951 15775 ft 330 kts 226°
2026-04-19 11:55 66.83097 -50.91346 16609 ft 335 kts 226°
2026-04-19 11:55 66.81531 -50.95678 17397 ft 340 kts 226°
2026-04-19 11:55 66.79916 -51.00138 18207 ft 346 kts 227°
2026-04-19 11:56 66.78278 -51.04651 18881 ft 351 kts 228°
2026-04-19 11:56 66.76609 -51.09242 19531 ft 357 kts 229°
2026-04-19 11:56 66.74919 -51.13877 20285 ft 360 kts 229°
2026-04-19 11:56 66.73215 -51.18540 21044 ft 362 kts 230°
2026-04-19 11:57 66.71503 -51.23216 21806 ft 364 kts 230°
2026-04-19 11:57 66.69770 -51.27938 22537 ft 367 kts 231°
2026-04-19 11:57 66.68029 -51.32675 23270 ft 369 kts 231°
2026-04-19 11:57 66.66273 -51.37438 23875 ft 372 kts 231°
2026-04-19 11:58 66.64487 -51.42213 24404 ft 376 kts 229°
2026-04-19 11:58 66.62557 -51.46741 24974 ft 381 kts 226°
2026-04-19 11:58 66.60561 -51.51162 25519 ft 384 kts 226°
2026-04-19 11:58 66.58542 -51.55604 26050 ft 387 kts 226°
2026-04-19 11:59 66.56511 -51.60066 26574 ft 389 kts 226°
2026-04-19 11:59 66.54467 -51.64554 27072 ft 392 kts 226°
2026-04-19 11:59 66.52405 -51.69072 27583 ft 395 kts 226°
2026-04-19 11:59 66.50328 -51.73614 28064 ft 397 kts 226°
2026-04-19 12:00 66.48240 -51.78170 28545 ft 400 kts 226°
2026-04-19 12:00 66.46050 -51.82537 29013 ft 406 kts 220°
2026-04-19 12:00 66.43592 -51.86188 29467 ft 414 kts 213°
2026-04-19 12:00 66.40980 -51.89316 29896 ft 419 kts 210°